星链-33744 (STARLINK-33744)

导读

STARLINK-33744是美国太空探索技术公司SpaceX星链计划中的一颗卫星,于2025年4月6日由美国发射升空,作为星链互联网星座的组成部分,它将为全球范围内用户提供低延迟、高速率的卫星宽带互联网服务,进一步完善星链星座的全球覆盖能力,助力星链网络服务能力的提升。

基本信息
目录编号:
63471
目录名称:
STARLINK-33744
国际标识:
2025-070M
轨道中心:
EARTH
卫星名称:
星链-33744
卫星全名:
星链-33744 (STARLINK-33744)
卫星状态:
在轨 (已飞行434 天)
发射日期:
2025-04-06 UTC
国别 :
美国 (US)
星等 :
--
轨道信息
数据来源 国际轨道数据
星历时间: 2026-06-13T19:31:06+0800
18小时前
查看轨道信息
半长轴: 6861.194km
偏心率: 0.0001834
轨道倾角: 42.991°
近地点辐角 261.351°
升交点赤经 79.055°
平近点角 98.714°
近地点: 481.798km
远地点: 484.316km
周期: 94.267分钟
每日圈数: 15.275774
详细信息
固有亮度:
5
最大亮度:
2.5
卫星平台:
Starlink V1.0
覆盖范围:
全球
运营商:
太空探索技术公司
运营商所在国:
美国
制造商(研发单位):
太空探索技术公司
制造商所在国:
美国
使用方式:
暂无
卫星简介
Starlink 计划是 SpaceX 推出的全球卫星互联网项目,通过发射低轨道卫星,为全球尤其是偏远地区提供高速、低延迟的互联网服务。自 2019 年起,Starlink 已部署数千颗卫星,旨在缩小全球数字鸿沟,推动互联网普及。该项目还为军事、航空等行业提供通信支持,带来广泛经济效益。
2D轨道图
3D轨道图
轨道高度分析图
轨道倾角分析图
轨道综合分析图
查看轨道综合分析图